Location: Pacheco
(37.9835°N, 122.0752°W)
Time: 10:22:29
(UTC+00:00)

H-2A R/B - Pass Details

Date: 13 April 2024
Orbit: 732 x 833 km, 98.2° (Epoch: 23 May)

Event Time Altitude Azimuth Distance (km) Brightness Sun altitude
Rises 12:00:26 0° 21° (NNE) 3,194 6.0 -18.3°
Reaches altitude 10° 12:02:52 10° 30° (NNE) 2,277 5.3 -17.8°
Maximum altitude 12:07:31 38° 98° (E) 1,150 3.4 -17.0°
Drops below altitude 10° 12:12:16 10° 166° (SSE) 2,319 4.4 -16.2°
Sets 12:14:45 0° 174° (S) 3,260 5.1 -15.7°
